Location: Loussous
(43.6529°N, 0.0734°E)
Time: 09:27:32
(UTC+00:00)

Daily predictions for brighter satellites

Satellite Brightness Start Highest point End
(mag) Time Altitude Azimuth Time Altitude Azimuth Time Altitude Azimuth
STARLINK-1072 4.0 19:59:56 10° NW 20:04:03 59° NNE 20:08:08 10° ESE
Cosmos 1461 3.7 20:02:04 10° S 20:05:38 29° ESE 20:09:23 10° NE
STARLINK-1225 3.8 20:01:50 10° WSW 20:05:59 80° NW 20:10:08 10° NE
Cosmos 1140 Rocket 3.9 20:01:05 10° NNW 20:06:16 66° WSW 20:11:26 10° S
Cosmos 1782 Rocket 3.8 20:01:57 10° N 20:06:27 80° W 20:10:54 10° S
Iridium 51 4.2 20:03:48 10° S 20:07:37 63° E 20:11:12 10° N
SJ-6B 3.5 20:04:00 10° S 20:07:39 53° W 20:11:18 10° NNW
MOS 1 Rocket 3.2 20:03:19 10° N 20:07:42 84° WNW 20:11:58 10° SSW
Cosmos 1544 3.1 20:04:28 10° N 20:08:07 86° WSW 20:11:42 10° S
Okean 3 3.8 20:04:12 10° SSE 20:08:22 49° E 20:12:32 10° NNE
STARLINK-1096 3.9 20:04:55 10° NW 20:09:02 64° NNE 20:13:08 10° ESE
ASTEX 1 3.9 20:05:23 10° S 20:10:14 63° W 20:15:08 10° NNW
STARLINK-1230 3.9 20:06:50 10° WSW 20:10:57 74° NNW 20:15:06 10° NE
STARLINK-1079 3.8 20:09:53 10° NW 20:14:01 68° NNE 20:18:08 10° ESE
STARLINK-1243 4.0 20:11:50 10° WSW 20:15:58 69° NNW 20:20:06 10° NE
Cosmos 2221 Rocket 3.8 20:11:48 10° S 20:16:13 57° E 20:20:42 10° NNE
Meteor 2-9 Rocket 4.3 20:11:30 10° NNW 20:16:51 79° W 20:22:09 10° S
SL-4 R/B 1.1 20:14:30 10° NNW 20:17:34 87° SW 20:20:23 10° SSE
STARLINK-1116 3.7 20:14:51 10° NW 20:19:00 74° NNE 20:23:08 10° ESE
NOSS 8 (F) 4.4 20:15:55 10° SSW 20:19:13 49° ESE 20:22:11 10° NE
STARLINK-1236 4.2 20:16:49 10° WSW 20:20:56 64° NNW 20:25:03 10° NE
STARLINK-1094 3.6 20:24:48 10° NW 20:28:58 86° NE 20:32:47 12° SE
USA 245 4.0 20:27:56 12° ESE 20:30:02 22° ENE 20:32:09 10° NNE
Sich 1 Rocket 4.0 20:25:33 10° NNW 20:30:08 69° W 20:34:39 10° S
STARLINK-1269 4.4 20:26:51 10° WSW 20:30:54 55° NNW 20:35:00 10° NE
Cosmos 2278 Rocket 2.9 20:26:18 10° SW 20:31:54 61° WNW 20:37:33 10° NNE
Resurs 01 Rocket 1.7 20:29:00 10° SSE 20:33:28 89° ENE 20:37:57 10° NNW
GPS 2-04 Rocket1 3.8 20:31:02 10° SW 20:33:49 22° S 20:35:57 14° SE
STARLINK-1117 3.6 20:29:47 10° NW 20:33:57 88° SSW 20:37:33 13° SE
Okean 1 Rocket 4.3 20:30:58 10° NNE 20:34:45 26° ENE 20:37:54 13° SE
Cosmos 1741 Rocket 4.3 20:30:03 10° NNW 20:35:12 56° ENE 20:39:49 13° SE
Okean 2 Rocket 3.0 20:31:12 10° N 20:35:39 84° E 20:40:01 10° S
MetOp-B 4.3 20:32:06 10° SSE 20:37:22 62° ENE 20:42:40 10° N
STARLINK-1078 3.6 20:34:46 10° WNW 20:38:55 81° SW 20:42:21 15° SE
Meteor 1-12 Rocket 4.3 20:33:17 10° N 20:38:58 85° E 20:44:42 10° S
SL-8 R/B 4.3 20:36:03 10° WNW 20:40:47 55° NNE 20:45:31 10° E
Cosmos 2279 Rocket 4.0 20:37:28 10° N 20:43:44 79° E 20:49:56 10° S
STARLINK-1108 3.6 20:39:45 10° WNW 20:43:54 75° SW 20:47:08 16° SE
SPOT 3 Rocket 4.4 20:38:58 10° S 20:43:56 49° W 20:48:57 10° NNW
Cosmos 371 Rocket 3.5 20:39:06 10° SSW 20:43:56 77° WNW 20:48:50 10° NNE
Cosmos 1850 Rocket 4.1 20:39:26 10° NNW 20:44:48 71° ENE 20:49:25 14° SSE
ATLAS 3B CENTAUR R/B 4.3 20:31:37 10° SW 20:44:54 31° S 20:50:57 14° SE
SL-4 R/B 3.7 20:42:04 10° S 20:45:19 19° SE 20:48:38 10° E
Cosmos 1110 Rocket 4.4 20:41:20 10° S 20:46:09 41° ESE 20:50:59 10° NE
Terra 3.5 20:44:22 11° ESE 20:47:34 20° ENE 20:51:00 10° NNE
Spot 2 Rocket 3.6 20:44:03 13° SSE 20:48:31 62° ENE 20:53:29 10° N
STARLINK-1071 3.7 20:44:44 10° WNW 20:48:52 69° SW 20:51:55 17° SE
SPOT 1/Viking Rocket 4.0 20:45:17 14° SE 20:49:26 46° ENE 20:54:21 10° N
Abrixas rocket 2.5 20:46:33 10° WNW 20:49:27 51° NNE 20:51:50 14° E
NOSS 8 (H) 4.1 20:47:07 10° SSW 20:50:23 64° SE 20:53:23 10° NE
Cosmos 2151 Rocket 3.6 20:45:50 10° N 20:50:24 84° E 20:54:34 12° S
STARLINK-1110 3.8 20:48:32 10° WNW 20:52:38 64° SW 20:55:32 18° SE
STARLINK-1124 3.9 20:54:44 10° WNW 20:58:48 57° SW 21:01:29 20° SSE
STARLINK-1128 4.5 20:57:01 10° NW 21:01:00 44° NNE 21:04:28 13° E
Cosmos 1331 Rocket 4.1 20:57:55 10° S 21:02:54 51° ESE 21:07:55 10° NNE
STARLINK-1122 4.0 20:59:43 10° WNW 21:03:46 52° SW 21:06:15 21° SSE
Aureole 2 Rocket 2.0 21:00:38 10° SSW 21:03:46 89° ESE 21:06:47 10° NNE
deb Kosmos-1763 4.2 21:01:26 10° NNW 21:05:00 59° ENE 21:06:57 24° SE
Cosmos 1300 Rocket 4.3 21:00:50 10° NNW 21:05:10 53° W 21:09:28 10° S
STARLINK-1113 4.4 21:01:59 10° NW 21:06:01 47° NNE 21:09:16 15° E
Cosmos 1437 Rocket 2.9 21:04:59 10° SSW 21:08:45 69° W 21:12:34 10° N
STARLINK-1126 4.1 21:04:46 10° WNW 21:08:46 48° SW 21:11:06 22° SSE
STARLINK-1119 4.3 21:06:58 10° NW 21:11:02 50° NNE 21:14:04 17° E
Cosmos 1378 3.7 21:09:41 24° SE 21:11:21 39° E 21:14:50 10° NNE
STARLINK-1082 4.3 21:09:43 10° WNW 21:13:40 43° SW 21:15:48 23° SSE
Cosmos 304 Rocket 3.8 21:10:33 10° SSW 21:15:20 81° WNW 21:20:10 10° NNE
ISS -2.4 21:12:51 10° WNW 21:15:48 28° SW 21:17:02 22° S
STARLINK-1114 4.2 21:11:56 10° NW 21:16:00 54° NNE 21:18:50 19° ESE
Meteor 1-15 Rocket 4.3 21:11:32 10° N 21:17:31 86° E 21:21:57 19° S
STARLINK-1100 4.4 21:14:43 10° WNW 21:18:36 40° SW 21:20:35 24° S
Lacrosse 5 2.9 21:14:27 10° WNW 21:19:01 35° SW 21:22:07 18° S
Cosmos 1092 Rocket 4.3 21:15:30 20° SSE 21:19:32 46° E 21:25:22 10° NNE
NOSS 2-2 (D) 2.9 21:16:36 10° SSW 21:20:09 80° SE 21:24:01 10° NE
STARLINK-1130 (DARKSAT) 4.0 21:16:54 10° NW 21:21:00 58° NNE 21:23:36 21° ESE
CENTAUR R/B 4.0 21:16:07 10° NNW 21:23:32 41° NE 21:31:08 12° ESE
Cosmos 1674 Rocket 4.0 21:19:35 10° SSW 21:23:54 61° W 21:28:17 10° N
STARLINK-1084 3.9 21:21:53 10° NW 21:26:00 62° NNE 21:28:23 23° ESE
Cosmos 1378 Rocket 3.7 21:22:50 13° SSW 21:26:46 76° W 21:31:10 10° N
SL-27 R/B 4.1 21:25:27 10° N 21:28:22 23° ENE 21:29:28 20° E
STARLINK-1098 3.8 21:26:51 10° NW 21:31:00 67° NNE 21:33:10 26° ESE
Cosmos 1766 3.6 21:27:23 10° N 21:31:18 53° E 21:32:47 33° SE
IGS 5A 4.1 21:31:56 20° S 21:34:38 50° W 21:38:42 10° NNW
STARLINK-1123 3.7 21:31:48 10° NW 21:35:57 72° NNE 21:37:56 29° ESE
Cosmos 1943 Rocket 2.2 21:31:46 16° S 21:36:07 61° ESE 21:41:38 10° NNE
Cosmos 2297 4.2 21:30:39 10° SW 21:36:17 63° WNW 21:41:59 10° NNE
NOSS 2-2 (E) 3.9 21:34:00 10° SW 21:37:29 53° NW 21:41:25 10° NNE
NOSS 3-4 (A) 4.3 21:36:31 24° SE 21:37:37 26° ESE 21:42:33 10° ENE
NOSS 3-4 (C) 4.3 21:36:41 24° SE 21:37:43 26° ESE 21:42:39 10° ENE
Cosmos 1900 4.5 21:33:26 10° NNW 21:38:28 70° NE 21:41:01 29° SE
Landsat 7 4.5 21:36:40 18° S 21:39:59 49° W 21:44:37 10° NNW
STARLINK-1097 3.6 21:36:49 10° NW 21:40:58 77° NNE 21:42:45 33° ESE
Cosmos 2082 Rocket 3.6 21:38:46 10° NW 21:43:40 30° WSW 21:47:54 13° SSW
SeaSat 1 3.9 21:41:20 10° ENE 21:44:35 19° ESE 21:44:35 19° ESE
STARLINK-1099 3.6 21:41:47 10° NW 21:45:56 84° NNE 21:47:31 37° ESE
Cosmos 1975 Rocket 3.2 21:44:36 35° SSE 21:46:17 59° E 21:50:38 10° NNE
Cosmos 292 Rocket 4.3 21:48:20 34° SE 21:49:37 41° ESE 21:54:11 10° NE
BREEZE-M DEB (TANK) 4.2 21:29:58 10° WSW 21:49:37 82° NNW 21:54:07 10° ENE
STARLINK-1104 3.5 21:46:45 10° NW 21:50:54 90° NNW 21:52:18 41° SE
BREEZE-M DEB (TANK) 4.4 21:46:58 10° WNW 21:51:07 37° N 21:54:28 10° ENE
Cosmos 2369 Rocket 2.2 21:49:04 25° S 21:52:18 59° ESE 21:57:51 10° NNE
STARLINK-1144 3.5 21:51:44 10° NW 21:55:54 84° SW 21:57:05 45° SE
SPOT 5 3.2 21:53:31 28° S 21:56:18 72° WSW 22:01:40 10° NNW
ATLAS CENTAUR R/B 3.2 21:59:35 18° E 21:59:35 18° E 22:01:24 10° ENE
STARLINK-1103 3.5 21:56:43 10° WNW 22:00:51 77° SW 22:01:51 50° SE
ERS-1 Rocket 3.5 21:59:40 26° SSW 22:02:20 53° W 22:07:16 10° NNW
Cosmos 1025 Rocket 4.0 22:02:58 29° E 22:03:16 29° E 22:07:00 10° NNE
Okean 2 3.4 22:02:00 36° SSW 22:03:38 78° W 22:07:49 10° N
Cosmos 2026 Rocket 4.0 22:00:24 28° S 22:03:53 76° E 22:10:15 10° N
ATLAS 2AS CENTAUR R/B 3.2 22:00:30 23° S 22:05:24 51° ESE 22:13:02 10° NE
STARLINK-1101 3.5 22:01:41 10° WNW 22:05:49 71° SW 22:06:38 53° SSE
Cosmos 1656 Rocket 4.2 22:04:50 34° SE 22:06:02 38° ESE 22:11:09 10° NE
Thor Agena Rocket 4.2 22:01:13 10° NNE 22:06:06 37° E 22:07:12 33° SE
Meteor 1-22 Rocket 4.3 22:00:28 10° NNW 22:06:22 80° W 22:09:04 33° S
BREEZE M DEB (TANK) 3.7 22:02:21 10° W 22:06:23 38° NNW 22:08:30 10° NE
Cosmos 1553 Rocket 4.3 22:03:04 10° N 22:09:11 51° ENE 22:11:43 33° SE
Cosmos 1953 4.0 22:07:11 10° NNE 22:10:13 20° ENE 22:10:41 20° E
APEX 4.3 22:06:47 27° S 22:10:23 64° ESE 22:15:52 10° NNE
NOSS 3-2 (A) 4.1 22:02:54 10° NW 22:10:32 86° SW 22:15:10 31° SSE
STARLINK-1102 3.6 22:06:41 10° WNW 22:10:48 65° SW 22:11:26 55° S
Cosmos 1805 4.2 22:07:21 10° NNW 22:11:05 42° W 22:12:24 31° SW
Cosmos 1470 3.2 22:07:44 10° N 22:11:28 44° ENE 22:11:51 43° E
STARLINK-1111 3.6 22:11:40 10° WNW 22:15:45 59° SW 22:16:12 55° S
Cosmos 968 Rocket 3.8 22:10:46 10° NNW 22:15:50 56° ENE 22:17:31 38° ESE
Cosmos 1455 Rocket 2.9 22:14:04 10° N 22:18:25 87° W 22:19:25 53° S
ATLAS 5 CENTAUR R/B 2.7 22:13:45 10° SSW 22:21:46 33° E 22:23:20 10° ENE
STARLINK-1073 3.7 22:16:41 10° WNW 22:20:44 54° SW 22:20:59 53° SSW
USA 238 DEB 3.9 22:15:08 10° NW 22:22:22 75° WSW 22:25:51 35° SSE
USA 238 3.9 22:15:14 10° NW 22:22:28 75° WSW 22:25:58 35° SSE
SL-8 R/B 3.8 22:18:41 10° WNW 22:23:25 60° SSW 22:24:13 52° S
SL-4 R/B 2.3 22:19:44 10° SW 22:24:30 86° SSE 22:29:23 10° ENE
Abrixas rocket 4.2 22:22:14 10° W 22:23:18 18° W 22:23:18 18° W
Terra 2.4 22:23:15 33° SSW 22:24:57 49° W 22:29:36 10° NNW
Cosmos 1758 3.5 22:21:00 10° N 22:25:01 57° E 22:25:25 54° ESE
Cosmos 1842 3.7 22:24:08 40° SW 22:25:12 55° W 22:29:02 10° N
STARLINK-1121 3.9 22:21:41 10° WNW 22:25:41 49° SW 22:25:45 49° SW
Meteor 2-13 Rocket 4.4 22:23:31 31° SSW 22:26:43 83° W 22:32:55 10° N
STARLINK-1234 4.3 22:26:39 10° NW 22:29:42 35° NNE 22:30:16 32° NE
STARLINK-1106 4.1 22:26:42 10° WNW 22:30:34 45° SW 22:30:34 45° SW
STARLINK-1112 4.3 22:31:41 10° WNW 22:35:19 40° SW 22:35:19 40° SW
STARLINK-1209 4.0 22:32:46 10° NW 22:35:55 40° NNE 22:36:13 39° NE
Cosmos 1503 Rocket 4.2 22:30:44 10° NNW 22:36:01 61° ENE 22:37:35 43° SE
STARLINK-1128 4.5 22:36:42 10° WNW 22:40:06 36° WSW 22:40:06 36° WSW
Cosmos 2263 4.2 22:39:18 30° SSW 22:42:10 79° WNW 22:47:49 10° NNE
Cosmos 1536 Rocket 3.4 22:45:44 70° SE 22:46:06 76° E 22:50:27 10° NNE
Cosmos 1674 4.4 22:48:20 22° ENE 22:48:20 22° ENE 22:50:40 10° NE
Cosmos 1271 Rocket 2.9 22:49:29 62° WSW 22:49:46 65° WNW 22:53:41 10° N
Cosmos 1242 Rocket 3.5 22:49:26 38° W 22:49:55 40° WNW 22:53:26 10° N
STARLINK-60 4.3 22:52:21 29° WNW 22:53:22 39° NNW 22:56:24 10° NE
COSMOS 2455 2.8 22:52:50 48° S 22:54:19 63° ESE 23:00:16 10° NE
Spot 4 3.8 22:53:29 59° SSE 22:54:23 81° ENE 22:59:16 10° NNW
Cosmos 1544 Rocket 4.1 22:50:58 10° NNW 22:55:09 48° W 22:55:47 44° WSW
Cosmos 1354 Rocket 4.0 22:50:03 10° NNW 22:55:22 80° ENE 22:56:35 54° SE
Cosmos 1486 Rocket 4.5 22:52:17 10° NNW 22:57:23 50° WSW 22:58:32 42° SW
USA 215 4.0 22:52:56 10° ESE 22:59:13 51° NNE 23:05:30 10° NW
Cosmos 1833 4.1 22:54:09 10° NNW 22:59:48 82° WSW 23:01:10 53° SSE
Cosmos 1707 2.9 22:59:44 63° W 22:59:50 64° W 23:03:43 10° N
Helios 1A 4.5 23:01:35 25° E 23:02:13 26° ENE 23:05:42 10° N
SL-27 R/B 4.3 23:00:32 10° NW 23:03:01 22° W 23:03:01 22° W
Cosmos 1174 4.4 23:06:36 42° NE 23:06:36 42° NE 23:09:10 10° NNE
ATLAS 3B CENTAUR R/B 4.4 23:00:49 10° WSW 23:05:09 18° SW 23:05:09 18° SW
Cosmos 1726 2.3 23:04:00 10° N 23:07:20 69° NNE 23:07:20 69° NNE
ALOS 2 2.9 23:07:47 52° E 23:08:11 54° ENE 23:12:28 10° N
COSMOS 2487 3.1 23:07:45 10° NNW 23:10:32 52° N 23:10:32 52° N
CENTAUR R/B 3.3 23:06:43 10° NW 23:14:49 66° WSW 23:18:17 39° S
Meteor 2-5 Rocket 4.4 23:14:12 36° ESE 23:15:01 39° E 23:20:11 10° NNE
Meteor 1-16 Rocket 4.0 23:11:14 10° N 23:16:46 85° E 23:17:49 60° SSE
Cosmos 1867 3.5 23:12:23 10° NW 23:17:51 76° WSW 23:18:45 61° S
ATLAS 3B R/B 2.8 23:11:14 10° NNW 23:18:04 74° NE 23:21:09 36° SE
EO 1 Del DPAF 4.2 23:15:38 10° N 23:19:10 39° WNW 23:19:29 38° W
NOSS 3-2 (C) 4.4 23:12:42 10° NW 23:20:11 54° WSW 23:23:02 39° S
Cosmos 1943 Rocket 4.3 23:15:55 10° WSW 23:20:17 23° NW 23:24:44 10° N
Cosmos 1606 Rocket 3.9 23:17:15 10° N 23:21:30 50° ENE 23:21:36 50° E
Cosmos 2098 Rocket 4.4 23:20:08 44° SSE 23:22:31 70° E 23:29:58 10° NNE
SeaSat 1 2.8 23:17:46 10° NNE 23:22:39 61° WNW 23:24:21 38° WSW
ATLAS CENTAUR R/B 4.2 23:26:59 10° NNE 23:27:55 11° NE 23:29:00 10° ENE
NOSS 3-4 (A) 3.9 23:23:53 20° WSW 23:27:58 59° NW 23:34:15 10° NNE
NOSS 3-4 (C) 3.8 23:24:01 21° WSW 23:28:04 59° NW 23:34:21 10° NNE
RESURS DK-1 2.9 23:29:48 50° ENE 23:29:48 50° ENE 23:33:10 10° NE
Cosmos 2084 3.8 23:33:36 54° E 23:33:36 54° E 23:37:24 10° NE
Meteor 2-10 4.4 23:29:14 10° NNW 23:34:03 46° W 23:34:44 43° WSW
BREEZE-M R/B 3.8 23:25:13 10° SW 23:34:23 60° SSE 23:38:41 10° ENE
Cosmos 1626 3.7 23:36:00 27° ENE 23:36:00 27° ENE 23:38:31 10° NNE
Cosmos 2315 Rocket 3.9 23:29:06 10° N 23:35:20 85° E 23:36:58 52° SSE
Cosmos 2369 Rocket 4.2 23:32:10 10° WSW 23:36:43 24° NW 23:41:16 10° N
ATLAS CENTAUR R/B 2.3 23:35:42 36° W 23:36:51 45° NW 23:40:50 10° NNE
Okean 1-7 Rocket 4.3 23:37:39 41° E 23:37:39 41° E 23:41:52 10° NNE
Cosmos 1340 Rocket 3.5 23:34:30 10° NNW 23:38:06 46° W 23:38:06 46° W
Cosmos 2227 Rocket 4.0 23:34:41 10° N 23:39:18 25° NE 23:43:30 12° ESE
Cosmos 1908 3.5 23:39:12 10° N 23:42:29 63° NNW 23:42:29 63° NNW
STARLINK-1198 4.5 23:40:54 10° NW 23:44:55 48° NNE 23:46:08 36° ENE
Cosmos 1953 3.7 23:43:09 10° NNW 23:46:22 29° W 23:46:22 29° W
STARLINK-1199 4.3 23:45:53 10° NW 23:49:57 51° NNE 23:50:55 41° ENE
Landsat 4 4.3 23:48:00 10° NNE 23:51:00 52° NE 23:51:00 52° NE
KORONAS-FOTON 4.3 23:52:25 55° NW 23:52:25 55° NW 23:55:48 10° N
STARLINK-1210 4.2 23:50:51 10° NW 23:54:56 55° NNE 23:55:41 46° ENE
